Wind_Speed
25 24 26 30 32 33 35 42 40 40 40 39 37 36 34 32 29 27 24 22 20 17 14 12 10 9 8 6 5 3 2 2 3 4 3 2 3 3 3 3 3 7 9
24 24 26 30 35 36 36 43 45 43 41 38 35 33 33 31 29 29 27 25 22 19 17 14 12 10 9 8 6 5 4 2 3 5 6 4 4 6 3 3 4 7 7
25 28 30 33 33 38 39 43 45 44 43 37 34 33 33 30 29 30 29 27 24 21 19 16 14 12 11 9 7 5 5 4 4 5 6 4 5 6 5 4 5 6 6
27 23 27 30 34 34 33 37 38 43 44 42 38 41 41 37 33 32 31 29 27 24 21 18 16 14 12 10 8 6 6 5 4 5 7 9 7 5 4 5 4 5 5
21 23 26 27 28 31 35 37 38 40 42 45 43 42 37 30 31 31 31 30 28 26 23 21 18 16 13 11 9 7 6 6 6 6 6 6 7 8 3 5 4 6 4
8 12 16 20 23 27 31 33 37 39 40 44 45 42 38 33 33 33 33 32 30 28 26 22 20 17 14 12 10 8 7 6 7 6 6 6 4 4 3 4 5 6 5
18 9 6 15 19 25 29 31 35 37 41 44 45 44 39 37 36 36 34 33 32 30 28 25 22 18 16 13 11 9 8 7 7 5 5 5 6 6 5 3 4 4 6
20 20 7 7 13 21 26 29 33 36 37 40 42 44 39 36 34 35 33 32 31 30 29 26 22 19 16 13 12 11 9 7 7 6 6 5 4 4 4 4 2 3 6
19 19 14 2 8 15 22 28 31 34 36 39 41 40 39 37 33 33 33 31 30 28 27 25 22 19 16 15 13 11 9 8 6 6 5 4 3 2 1 1 0 2 5
20 20 16 8 4 6 14 20 26 31 36 37 43 45 46 42 35 35 35 32 30 28 27 26 21 17 17 16 13 11 10 8 7 6 5 5 4 2 1 2 0 2 6
20 20 17 13 7 7 8 12 21 27 31 33 36 40 41 36 34 37 36 33 30 30 27 21 18 20 18 16 13 12 9 8 7 6 6 5 3 2 2 2 2 4 7
20 17 14 13 12 10 11 14 15 22 28 31 33 35 37 36 38 39 35 36 33 26 23 22 24 20 17 15 13 11 9 7 7 6 5 4 3 2 3 2 3 4 7
23 20 17 15 13 14 14 15 17 19 23 26 31 32 32 35 38 39 40 36 31 27 28 25 23 20 18 16 13 11 9 8 8 6 6 5 4 3 4 3 4 5 7
23 20 21 19 17 16 18 18 18 19 22 26 29 31 33 33 38 41 41 36 30 31 25 27 24 20 18 15 12 10 10 9 7 7 5 5 4 4 6 4 4 5 8
20 21 21 20 20 19 18 20 20 20 22 26 30 32 30 31 41 42 40 33 32 32 29 25 23 20 17 15 12 11 10 9 7 6 6 7 8 7 7 6 6 7 7
22 22 24 22 22 21 21 19 21 22 23 26 27 31 37 38 40 41 41 35 33 32 31 27 22 20 16 16 13 13 10 8 5 5 6 6 6 8 9 10 11 11 11
22 22 20 18 21 21 21 21 21 21 24 25 26 28 32 42 47 46 41 37 39 37 31 26 22 19 21 15 15 12 10 7 6 7 6 5 7 8 8 10 13 12 14
14 18 18 19 20 22 22 23 21 23 25 26 29 31 30 31 36 46 44 42 40 35 29 24 27 24 20 17 14 11 8 6 7 7 6 6 6 8 9 10 11 12 13
19 18 17 17 20 22 19 22 21 23 25 27 30 34 40 41 43 45 43 41 36 30 30 30 26 24 20 17 14 11 8 6 5 5 6 6 7 11 12 12 11 13 14
19 20 16 14 15 17 12 17 20 23 25 24 30 33 40 44 44 45 38 35 32 34 32 27 24 23 19 16 15 11 7 7 6 6 5 9 9 13 14 13 13 13 14
18 16 14 13 11 16 13 12 15 18 19 28 33 37 38 38 40 36 35 36 36 32 29 26 24 20 18 17 14 12 9 7 6 7 6 5 14 14 13 14 14 16 21
18 15 13 12 9 7 9 8 13 21 23 27 28 30 31 33 37 36 38 35 33 31 28 25 22 20 19 18 14 12 11 10 7 8 7 7 13 14 14 13 16 19 22
18 15 11 9 10 7 7 14 16 17 16 19 23 26 30 34 38 38 34 33 31 28 26 23 21 18 16 16 15 13 10 10 9 7 9 11 13 14 12 17 18 18 13
16 12 8 6 5 5 7 5 9 11 15 22 26 29 34 37 31 29 31 30 28 24 22 23 18 16 15 12 10 11 8 11 8 10 7 11 11 12 13 13 13 13 14
10 9 8 6 4 6 4 5 9 14 20 24 29 32 32 29 31 28 25 21 17 18 20 17 16 17 13 13 13 10 9 7 9 10 7 8 9 11 12 13 14 15 16
7 7 7 7 8 7 8 10 12 17 20 26 30 29 29 29 27 25 23 20 18 19 18 15 14 13 14 14 13 13 11 11 8 5 6 10 11 12 13 14 16 16 18
Wind_Direction
239 223 216 209 205 205 205 213 215 213 206 205 203 203 201 202 203 203 203 200 198 197 191 186 181 174 168 167 166 155 128 109 139 130 142 193 277 225 329 345 14 9 3
234 223 215 210 207 206 205 212 214 215 210 207 204 205 204 203 205 204 202 201 199 196 193 190 187 183 181 182 182 179 168 167 168 194 191 207 263 248 256 297 335 336 349
235 223 215 212 209 208 206 212 211 215 211 204 201 202 204 203 201 202 203 202 199 198 196 194 193 191 191 193 192 188 179 187 179 176 182 218 242 211 226 273 298 332 339
246 236 223 218 216 214 209 208 208 211 211 208 206 211 210 204 205 205 203 202 201 199 198 198 198 198 200 198 201 199 195 179 190 205 204 208 206 242 218 249 278 327 342
257 245 232 228 222 214 211 209 208 208 211 213 214 214 208 204 204 202 204 203 202 201 200 201 201 203 204 208 211 208 202 197 202 199 203 193 203 204 207 236 259 309 299
321 256 241 231 226 218 214 211 207 208 208 212 212 214 209 200 201 202 204 203 203 203 203 204 205 205 208 211 210 211 213 211 213 205 189 181 203 228 207 243 272 277 286
23 358 250 223 223 218 215 214 211 210 210 213 215 216 210 210 213 211 205 204 204 205 206 206 206 207 209 210 208 213 212 211 214 202 192 190 186 192 176 186 270 279 289
22 19 357 242 228 222 218 216 216 215 211 214 215 217 211 210 213 213 207 208 209 208 208 205 205 209 210 209 212 208 209 214 216 211 194 188 192 186 180 174 203 288 267
14 15 18 355 231 223 224 231 220 217 214 215 214 213 211 211 208 209 211 210 209 207 205 205 207 207 209 212 205 206 209 209 212 208 196 181 199 178 171 235 338 299 292
3 5 360 1 8 239 228 226 224 222 217 215 218 217 218 217 209 213 213 209 208 208 207 207 205 210 211 208 201 202 204 202 200 196 186 177 197 226 232 250 254 273 275
348 345 345 337 296 268 246 238 228 222 219 219 214 215 215 210 209 214 214 213 210 209 208 204 219 217 212 206 203 204 199 196 202 195 193 200 215 223 249 270 300 294 286
327 325 317 320 310 282 258 242 234 223 220 218 216 214 212 209 212 213 211 211 210 204 208 220 220 212 208 203 202 197 192 191 192 196 192 209 236 239 255 285 285 287 292
319 316 316 303 309 297 273 251 239 227 213 217 214 210 206 204 209 207 211 207 201 218 219 213 212 207 202 198 197 199 195 194 199 193 196 224 224 223 244 281 280 308 303
314 313 311 304 288 295 293 269 244 235 219 209 209 212 204 203 207 211 211 204 221 212 219 210 207 202 198 200 203 205 202 204 210 216 222 235 229 240 273 277 303 302 306
304 303 298 296 287 272 279 279 254 238 226 217 205 202 204 202 210 210 205 214 204 222 207 200 198 201 199 203 200 208 204 212 222 233 234 237 243 263 274 275 285 310 306
299 299 302 299 295 280 263 258 251 237 223 219 218 202 198 204 210 205 205 207 209 199 197 193 195 198 199 211 212 215 216 226 236 234 237 261 271 288 294 295 297 300 307
296 302 301 298 302 297 273 256 250 229 224 216 213 212 202 205 209 204 207 203 197 193 193 195 200 206 209 215 211 214 231 244 242 227 233 256 274 288 289 303 304 307 304
312 311 314 306 303 293 277 256 239 227 223 214 205 203 200 195 191 198 198 194 192 193 195 198 209 204 212 210 216 216 230 246 246 240 249 264 268 282 284 290 292 296 296
313 309 308 307 313 308 279 251 235 223 218 212 205 199 204 198 199 198 191 188 190 189 198 201 195 196 210 214 217 218 227 221 214 240 263 264 278 282 287 297 294 293 300
306 309 307 299 309 317 292 242 231 217 214 211 203 200 203 206 202 194 186 184 188 194 193 190 198 201 207 213 216 223 228 212 211 223 254 280 273 288 296 301 299 304 303
305 303 302 289 298 318 312 244 222 217 210 204 206 200 201 203 199 190 185 188 188 185 184 189 191 195 206 212 218 233 232 226 222 223 235 250 282 296 299 305 304 302 309
302 303 295 279 286 301 311 232 210 213 220 213 211 208 205 202 186 184 187 185 181 180 184 186 189 194 199 220 227 240 233 228 228 228 239 259 286 300 304 305 305 310 313
295 289 279 270 278 285 289 234 233 223 214 208 200 195 189 184 182 186 179 179 180 181 182 187 192 192 196 214 236 244 245 238 211 222 238 269 291 299 314 308 307 313 314
278 271 263 249 270 267 228 239 232 204 190 182 177 180 180 180 179 177 178 177 180 184 190 192 188 191 197 198 220 221 229 226 231 246 278 291 299 305 317 325 316 311 309
258 244 239 224 213 223 227 210 199 178 175 175 175 177 178 174 170 171 172 179 188 200 198 195 190 193 197 203 199 192 197 213 229 237 273 288 288 295 297 299 304 308 309
230 224 222 213 202 203 190 189 184 182 178 175 175 174 172 169 167 166 169 182 194 200 203 205 213 216 213 222 217 217 227 229 242 268 272 280 285 290 295 299 304 305 307
Height
1445 1449 1451 1455 1461 1463 1464 1467 1472 1475 1479 1484 1488 1492 1494 1499 1504 1507 1510 1512 1514 1516 1518 1519 1521 1522 1523 1523 1523 1524 1524 1524 1524 1526 1525 1523 1523 1522 1521 1519 1517 1515 1514
1438 1442 1445 1449 1451 1455 1456 1459 1464 1468 1473 1479 1484 1488 1491 1495 1499 1501 1505 1507 1509 1512 1514 1515 1516 1518 1519 1520 1521 1522 1522 1521 1522 1526 1525 1525 1526 1524 1520 1518 1515 1514 1512
1428 1433 1436 1439 1444 1446 1447 1451 1457 1462 1467 1473 1478 1483 1487 1491 1493 1496 1499 1502 1505 1508 1510 1511 1512 1514 1516 1517 1518 1519 1520 1519 1519 1520 1522 1523 1521 1523 1519 1516 1515 1512 1511
1424 1428 1432 1434 1436 1443 1447 1448 1452 1455 1460 1465 1470 1472 1475 1481 1486 1491 1494 1497 1500 1503 1505 1507 1509 1510 1512 1513 1514 1516 1517 1517 1516 1517 1518 1518 1518 1521 1519 1517 1514 1512 1510
1417 1421 1425 1430 1434 1437 1439 1442 1446 1449 1453 1457 1463 1467 1472 1478 1482 1485 1488 1492 1495 1498 1500 1502 1504 1506 1507 1509 1511 1512 1513 1513 1514 1513 1515 1514 1516 1515 1515 1516 1516 1513 1509
1415 1416 1421 1425 1429 1432 1435 1438 1441 1442 1447 1451 1456 1460 1465 1470 1473 1477 1481 1485 1489 1492 1495 1498 1499 1502 1503 1505 1506 1508 1509 1510 1512 1510 1510 1511 1514 1515 1512 1513 1513 1512 1512
1416 1414 1415 1418 1423 1426 1429 1433 1437 1438 1440 1444 1451 1455 1461 1465 1469 1472 1475 1478 1483 1487 1490 1492 1495 1497 1499 1501 1502 1504 1505 1506 1508 1508 1507 1506 1506 1509 1507 1508 1511 1510 1509
1417 1415 1413 1415 1417 1421 1424 1426 1430 1435 1439 1440 1445 1450 1456 1460 1465 1468 1470 1474 1478 1482 1485 1488 1491 1493 1495 1498 1499 1500 1501 1503 1505 1505 1505 1505 1503 1504 1502 1503 1505 1506 1507
1419 1416 1414 1413 1414 1416 1418 1420 1424 1428 1433 1433 1438 1443 1449 1454 1459 1462 1466 1470 1473 1476 1481 1485 1487 1489 1492 1494 1495 1496 1497 1499 1500 1502 1501 1503 1503 1501 1501 1502 1502 1504 1506
1418 1415 1415 1412 1411 1412 1413 1415 1419 1423 1427 1427 1430 1436 1441 1447 1453 1457 1462 1465 1468 1472 1477 1481 1484 1487 1490 1492 1493 1493 1494 1496 1497 1498 1498 1499 1500 1497 1497 1499 1497 1499 1504
1418 1416 1414 1413 1412 1411 1409 1409 1412 1417 1421 1423 1426 1430 1435 1442 1448 1452 1456 1462 1466 1468 1472 1479 1482 1484 1487 1491 1491 1490 1491 1493 1494 1495 1495 1495 1495 1495 1497 1495 1494 1496 1499
1417 1416 1415 1412 1409 1408 1408 1409 1407 1408 1414 1416 1422 1425 1429 1435 1440 1445 1450 1454 1459 1465 1470 1475 1479 1481 1484 1488 1489 1488 1488 1491 1492 1491 1492 1491 1491 1492 1495 1491 1490 1490 1491
1413 1412 1410 1410 1406 1405 1405 1405 1404 1404 1405 1411 1415 1419 1424 1427 1432 1437 1441 1447 1453 1459 1467 1471 1476 1479 1479 1483 1484 1486 1486 1488 1489 1487 1489 1487 1489 1491 1492 1487 1487 1486 1487
1407 1406 1406 1406 1404 1401 1401 1400 1401 1402 1402 1402 1406 1414 1416 1421 1425 1429 1434 1440 1445 1455 1462 1465 1472 1475 1477 1479 1482 1485 1485 1485 1483 1483 1482 1485 1486 1489 1487 1486 1482 1482 1482
1405 1404 1403 1402 1401 1400 1396 1394 1395 1396 1399 1400 1397 1401 1412 1415 1417 1423 1429 1435 1442 1450 1457 1462 1467 1473 1475 1477 1477 1484 1484 1482 1479 1478 1479 1481 1481 1481 1481 1482 1481 1479 1477
1402 1400 1397 1395 1394 1394 1391 1389 1388 1389 1390 1394 1399 1397 1394 1403 1410 1418 1422 1428 1437 1444 1453 1458 1462 1467 1473 1473 1473 1480 1481 1480 1475 1476 1477 1477 1478 1477 1476 1477 1476 1473 1471
1397 1395 1393 1391 1388 1387 1386 1383 1382 1383 1384 1386 1392 1397 1398 1393 1394 1404 1413 1421 1430 1438 1445 1452 1458 1463 1467 1469 1472 1475 1477 1476 1474 1474 1474 1473 1473 1474 1475 1474 1471 1469 1466
1394 1393 1389 1385 1383 1381 1380 1378 1375 1377 1378 1379 1382 1389 1394 1399 1399 1397 1400 1411 1424 1432 1440 1446 1453 1459 1462 1464 1467 1471 1471 1472 1472 1472 1470 1471 1470 1469 1470 1470 1470 1467 1464
1390 1388 1385 1381 1378 1376 1373 1371 1370 1371 1373 1374 1375 1377 1378 1386 1392 1397 1402 1407 1419 1430 1437 1441 1448 1455 1458 1460 1464 1466 1467 1470 1468 1469 1467 1467 1466 1466 1466 1465 1465 1462 1460
1386 1382 1379 1377 1374 1370 1367 1366 1367 1366 1366 1370 1374 1373 1377 1379 1386 1396 1403 1410 1417 1422 1433 1439 1446 1450 1454 1457 1459 1464 1464 1466 1465 1467 1464 1462 1462 1464 1461 1461 1461 1456 1455
1381 1378 1375 1372 1369 1365 1363 1363 1362 1362 1364 1364 1367 1371 1374 1379 1386 1396 1403 1408 1413 1423 1430 1437 1445 1447 1450 1454 1455 1460 1462 1460 1462 1463 1464 1462 1458 1459 1457 1455 1454 1451 1448
1376 1372 1370 1366 1364 1362 1357 1360 1358 1357 1359 1362 1366 1373 1374 1382 1389 1395 1400 1408 1415 1421 1429 1433 1439 1445 1447 1447 1451 1454 1456 1455 1458 1460 1458 1457 1456 1455 1452 1451 1448 1446 1443
1371 1367 1364 1361 1358 1356 1354 1354 1356 1356 1357 1361 1366 1373 1379 1385 1387 1393 1401 1409 1415 1421 1425 1432 1438 1441 1443 1445 1447 1449 1449 1451 1455 1454 1453 1453 1451 1450 1448 1446 1444 1440 1440
1364 1362 1361 1358 1354 1353 1352 1352 1355 1356 1358 1363 1366 1374 1379 1386 1391 1398 1403 1410 1415 1420 1425 1428 1433 1438 1441 1442 1442 1445 1444 1448 1449 1449 1447 1448 1447 1446 1444 1442 1441 1439 1436
1358 1358 1358 1355 1351 1351 1351 1353 1357 1358 1362 1365 1370 1375 1383 1389 1394 1399 1406 1412 1417 1421 1424 1427 1431 1436 1436 1438 1440 1441 1444 1447 1448 1446 1446 1447 1447 1446 1444 1442 1439 1435 1432
1354 1354 1354 1353 1350 1351 1352 1355 1359 1362 1364 1368 1373 1379 1386 1391 1396 1400 1405 1412 1417 1421 1424 1426 1428 1428 1431 1433 1436 1437 1439 1442 1442 1443 1445 1444 1443 1442 1440 1437 1434 1431 1427